Orbital Elements at Epoch 2459000.5 (2020-May-31.0) TDB
Reference: JPL 18 (heliocentric ecliptic J2000)
Element | Value | Uncertainty (1-sigma) | Units |
e | .1050117615993854 | 7.1259e-08 | |
a | 2.667564477722626 | 1.9189e-08 | au |
q | 2.387438832737029 | 1.8251e-07 | au |
i | 14.97998766238699 | 8.7696e-06 | deg |
node | 16.9541116284467 | 1.5154e-05 | deg |
peri | 306.4987106650609 | 4.1047e-05 | deg |
M | 21.2935179766669 | 3.97e-05 | deg |
tp | 2458906.372671434688 (2020-Feb-26.87267143) | 0.00017526 | TDB |
period | 1591.368712330381 4.36 | 1.7171e-05 4.701e-08 | d yr |
n | .2262203581172715 | 2.4409e-09 | deg/d |
Q | 2.947690122708224 | 2.1204e-08 | au |
|
| | Orbit Determination Parameters
Additional Information
|